Regional Weather Roundup
Issued by NWS

Home | Current Version | Previous Version | Text Only | Print | Product List | Glossary Off
Versions: 1 2 3 4 5 6 7 8 9 10 11 12 13 14 15 16 17 18 19 20 21 22 23 24 25 26 27 28 29 30 31 32 33 34 35 36 37 38 39 40 41 42 43 44 45 46 47 48 49

000
ASUS45 KSLC 290510
RWRUT

UTAH REGIONAL WEATHER ROUNDUP
NATIONAL WEATHER SERVICE SALT LAKE CITY UT
1100 PM MDT SAT MAR 28 2015

UTZ001>011-023>025-290600-

NORTHERN UTAH

CITY           SKY/WX    TMP DP  RH WIND       PRES   REMARKS
BRIGHAM CITY   MOCLDY    52  14  22 N6        30.25R
HILL AFB       CLEAR     51  20  29 N7        30.23R
LOGAN          CLEAR     49  22  34 N14       30.26R
OGDEN          PTCLDY    50  20  30 W7        30.22R
PROVO AIRPORT  PTCLDY    57  28  33 NW24G30   30.19R
SALT LAKE CITY CLEAR     53  33  46 N5        30.22R
VERNAL         PTCLDY    54  11  18 CALM      30.12R
WENDOVER       CLEAR     55  14  19 NE12      30.26R
HEBER CITY     CLEAR     46  23  39 NE6       30.22R
WEST JORDAN    CLEAR     54  30  40 NW7       30.23R

$$

UTZ012>022-026-027-290600-

SOUTHERN/CENTRAL UTAH

CITY           SKY/WX    TMP DP  RH WIND       PRES   REMARKS
BLANDING       CLEAR     51  22  31 N9        30.23R
BRYCE CANYON   CLEAR     42  24  49 W7        30.30R
CEDAR CITY     CLEAR     53  22  29 S7        30.19R
DELTA          CLOUDY    57  26  30 NE13      30.19R
HANKSVILLE     CLEAR     55  21  26 CALM      30.09R
MILFORD        CLEAR     60  19  20 NE15      30.19R
MOAB/CYNLANDS  CLEAR     61  20  20 W9        30.05R
PRICE          CLEAR     56  19  23 W9        30.17R
ST GEORGE      CLEAR     66  25  20 CALM      30.07S
KANAB          CLEAR     48  23  37 NE6       30.22R

$$

REGIONAL REPORTS     COLORADO/ARIZONA

CITY           SKY/WX    TMP DP  RH WIND       PRES   REMARKS
CRAIG, CO      MOCLDY    51  20  29 SW10      30.16R
GRAND JUNCTION CLEAR     51  22  31 CALM      30.07R
RIFLE          MOCLDY    61  28  28 W6        30.11R
MONTROSE       CLEAR     52  23  32 S12       30.15R
CORTEZ         CLEAR     42  20  41 E9        30.18R
PAGE, AZ       CLEAR     67  19  16 SW3       30.11R
GRAND CANYON   CLEAR     37  19  48 NE3       30.28R
KINGMAN        CLEAR     60  24  25 S12       30.11R
FLAGSTAFF      CLEAR     43  21  41 CALM      30.32S

$$

REGIONAL REPORTS    NEVADA/IDAHO/WYOMING

CITY           SKY/WX    TMP DP  RH WIND       PRES   REMARKS
LAS VEGAS, NV  CLEAR     76  19  11 S10       29.97R
ELY            CLEAR     49  13  23 NW8       30.27R
ELKO           CLEAR     45  10  24 E7        30.29R
POCATELLO, ID  CLEAR     45  19  35 SW16      30.28R
BURLEY         CLEAR     44  23  43 SW14      30.26R
EVANSTON, WY   CLEAR     41  22  46 SW8       30.28R
ROCK SPRINGS   CLEAR     45  22  40 W16       30.22R
KEMMERER       PTCLDY    37  19  48 W12       30.26R WCI  30

$$


USA.gov is the U.S. government's official web portal to all federal, state and local government web resources and services.